Regional Weather Roundup
Issued by NWS

Home | Current Version | Previous Version | Text Only | Print | Product List | Glossary Off
Versions: 1 2 3 4 5 6 7 8 9 10 11 12 13 14 15 16 17 18 19 20 21 22 23 24 25 26 27 28 29 30 31 32 33 34 35 36 37 38 39 40 41 42 43 44 45 46 47 48 49 50

000
ASUS44 KMEG 281010
RWRTN
TENNESSEE HOURLY STATE WEATHER ROUNDUP
NATIONAL WEATHER SERVICE MEMPHIS TN
500 AM CDT TUE APR 28 2015

TNZ002-004-019-021-049-052-054-088>092-281100-
WEST TENNESSEE

CITY           SKY/WX    TMP DP  RH WIND       PRES   REMARKS
MEMPHIS INTL   CLOUDY    55  40  56 NE8       29.98R
NWS MEMPHIS      N/A     53 N/A N/A MISG        N/A
JACKSON        MOCLDY    48  41  76 NE7       29.97F
DYERSBURG      CLOUDY    50  30  46 NE8       30.01S
UNION CITY     CLEAR     46  32  57 NE6       30.00F
PARIS          CLEAR     41  37  87 NE5       30.00F
LEXINGTON      CLEAR     46  39  76 NE6       29.95F
SAVANNAH       CLEAR     41  32  70 CALM      29.95F
$$

TNZ008-025-027-028-033-062-065-066-281100-
NORTH MIDDLE TENNESSEE

CITY           SKY/WX    TMP DP  RH WIND       PRES   REMARKS
NASHVILLE      CLEAR     46  40  79 N7        29.99R
CLARKSVILLE    CLEAR     46  39  76 NE6       30.01R
SMYRNA         CLEAR     47  40  76 N6        29.99R
COOKEVILLE     CLEAR     37  37 100 N3        29.95S
CROSSVILLE     CLEAR     43  35  73 CALM      29.97S
$$

TNZ061-075-076-078-094-096-097-281100-
SOUTH MIDDLE TENNESSEE

CITY           SKY/WX    TMP DP  RH WIND       PRES   REMARKS
FAYETTEVILLE     N/A     43  36  75 N9        29.93S
TULLAHOMA      CLEAR     45  37  76 NE3       29.95S
WINCHESTER     CLEAR     45  37  76 N8        29.94S
MCMINNVILLE    CLEAR     39  39 100 N3        29.96R
COLUMBIA       CLEAR     39  32  75 SW3       29.95S
SHELBYVILLE    CLEAR     39  39 100 N3        29.96S
$$

TNZ017-018-042-046-047-281100-
NORTHEAST TENNESSEE

CITY           SKY/WX    TMP DP  RH WIND       PRES   REMARKS
TRI CITIES     CLEAR     37  35  92 CALM      30.00R
ELIZABETHTON   SUNNY     32  32 100 CALM      30.00R
$$

TNZ012-013-036-069-073-074-281100-
CENTRAL EAST TENNESSEE

CITY           SKY/WX    TMP DP  RH WIND       PRES   REMARKS
KNOXVILLE      CLEAR     43  37  79 N7        29.96R
OAK RIDGE      CLEAR     43  38  82 CALM      29.98R
GATLINBURG     SUNNY     37  36  93 CALM      29.97R
MORRISTOWN     SUNNY     43  37  81 NE5       29.98S
$$

TNZ083-085-099-281100-
SOUTHEAST TENNESSEE

CITY           SKY/WX    TMP DP  RH WIND       PRES   REMARKS
CHATTANOOGA    PTCLDY    48  39  71 CALM      29.93F
$$

SKY/WX REPORTED AS FAIR MEANS FEW OR NO CLOUDS BELOW
12 THOUSAND FEET.




USA.gov is the U.S. government's official web portal to all federal, state and local government web resources and services.